Regional Weather Roundup
Issued by NWS Portland, ME

Home | Current Version | Previous Version | Text Only | Print | Product List | Glossary On
Versions: 1 2 3 4 5 6 7 8 9 10 11 12 13 14 15 16 17 18 19 20 21 22 23 24 25 26 27 28 29 30 31 32 33 34 35 36 37 38 39 40 41 42 43 44 45 46 47 48 49 50
000
ASUS41 KGYX 210310
RWRGYX
WEATHER ROUNDUP FOR MAINE AND NEW HAMPSHIRE
NATIONAL WEATHER SERVICE GRAY ME
1000 PM EST THU NOV 20 2014

MEZ002-005-006-010-012-015-018-020-021-024-026-027-029-210400-
MAINE

CITY           SKY/WX    TMP DP  RH WIND       PRES   REMARKS
PORTLAND       MOCLDY    33   9  36 W12       29.85S
SANFORD        MOCLDY    30   7  37 W10G16    29.86R
BAR HARBOR     CLEAR     30  18  59 W3        29.80F
WISCASSET      MOCLDY    29  15  56 W3        29.84F
ROCKLAND       CLEAR     28  12  50 W7        29.81F
FRYEBURG       CLEAR     25   9  50 W3        29.83R
LEWISTONAUBURN CLEAR     30   7  37 W7        29.81S
AUGUSTA        CLEAR     27  12  53 W6        29.80F
WATERVILLE     CLEAR     28  10  47 W7        29.77F
BANGOR         PTCLDY    29  20  69 CALM      29.79F
GREENVILLE       N/A     19  12  74 NW3       29.67F
MILLINOCKET    PTCLDY    27  16  63 NW6       29.76S
HOULTON        PTCLDY    25  14  63 SW5       29.71F
PRESQUE ISLE   CLEAR     23  16  74 SW6       29.68F
FRENCHVILLE    CLEAR     19  16  88 SW8       29.62F
CARIBOU        PTCLDY    23  17  78 SW10      29.67F WCI  12
$$

NHZ002-005-008-009-011-012-014-210400-
NEW HAMPSHIRE

CITY           SKY/WX    TMP DP  RH WIND       PRES   REMARKS
PORTSMOUTH     MOCLDY    33  12  42 W7        29.87S
ROCHESTER      MOCLDY    31   9  39 CALM      29.86R
NASHUA         MOCLDY    31  16  54 W3        29.90R
MANCHESTER     PTCLDY    31  13  47 W6        29.88R
CONCORD        CLEAR     27  10  49 W5        29.88R
LACONIA        CLEAR     28   9  43 W7        29.83S
PLYMOUTH       FAIR      27  14  57 CALM      29.84F
BERLIN         CLEAR     13   8  81 CALM      29.76S
WHITEFIELD     CLEAR     23   7  50 S6        29.78S
JAFFREY        CLEAR     26  15  63 W5        29.86R
LEBANON        MOCLDY    28   9  44 SW8       29.86R
MT WASHINGTON  FOG        0   0 100 W55         N/A  VSB 1/16WCI -33
$$

VTZ005-007-008-210400-
VERMONT

CITY           SKY/WX    TMP DP  RH WIND       PRES   REMARKS
ST JOHNSBURY     N/A     24  11  57 MISG      29.79S
MONTPELIER     MOCLDY    24   9  52 SW8       29.83S
BURLINGTON     PTCLDY    27  12  53 S8        29.84S
$$

MAZ007-012-024-CTZ003-RIZ002-NYZ038-NYZ072-210400-
SOUTHERN NEW ENGLAND AND NY

CITY           SKY/WX    TMP DP  RH WIND       PRES   REMARKS
BOSTON         PTCLDY    34  18  52 W9        29.91R
WORCESTER      CLOUDY    28  17  63 W12       29.86S WCI  18
NANTUCKET      CLOUDY    44  23  43 W14       29.88S
PROVIDENCE     CLEAR     33  18  53 N9        29.92R
HARTFORD       PTCLDY    30  20  66 NW7       29.92R
ALBANY         MOCLDY    24  16  71 CALM      29.95R
NEW YORK CITY  PTCLDY    35  12  38 W14       29.99R
$$

ANZ081-ANZ082-ANZ150-NHZ014-MEZ023>029-210400-
COASTAL MARINE OBSERVATIONS

STATION/POSITION TIME  TEMP    WIND        PRES    WAVE
                       AIR SEA DIR/SP/G            HT/PER
                 (UTC) (F)     (DEG/KT/KT) (MB)    (FT/S)
MOUNT DESERT ROC 0300   38                 1008.7R
MATINICUS ROCK   0300          280/ 30/ 33 1008.8R
PORTLAND WX BUOY 0250   36 51  290/ 19/ 23 1010.2S   2/ 3
WELLS            0200   34 47  300/  8/ 11 1010.3R
ISLE OF SHOALS   0300   35     280/ 18/ 20 1010.9R
JEFFREYS LEDGE   0221      52                N/A     6/ 5
CASHES LEDGE BUO 0250   40 51  290/ 23/ 27 1009.5F   8/ 6
$$

.............KEY..............
   WCI - WIND CHILL
   TC  - TEMPERATURE IN CELSIUS
   VSB - VISIBILITY IN MILES
   HX  - HEAT INDEX
   FAIR- INDICATES FEW OR NO CLOUDS BELOW 12,000 FT, WITH NO
         SIGNIFICANT WEATHER AND/OR OBSTRUCTIONS TO VISIBILITY.




USA.gov is the U.S. government's official web portal to all federal, state and local government web resources and services.